パンスターズ彗星

P/2011 W1 ( PanSTARRS )

English version
Home page
Updated on September 8, 2013

---------------------------------------------------------------------

・ プロフィール

発見日 2011年11月26日
発見光度 20.1等
発見者 Pan-STARRS 1 telescope (Haleakala)

・ 写真集

・ 軌道要素

Epoch 2012 Feb. 3.0 TT = JDT 2455960.5
T 2012 Jan. 22.56333 TT                                 MPC
q   3.3120593            (2000.0)            P               Q
n   0.09812746     Peri.  282.48127     +0.09762048     -0.99501928
a   4.6552428      Node   161.87976     +0.93643831     +0.08497283
e   0.2885314      Incl.    3.71859     +0.33697704     +0.05211763
P  10.0
From 160 observations 2011 Nov. 23-2013 Feb. 9, mean residual 0".5.

・ 光度変化

        m1 = 6.0 + 5 logΔ + 20.0 log r

---------------------------------------------------------------------

軌道要素はM.P.E.C. 2013-C52に掲載されたものです。
光度グラフはComet for Windowsで作成したものです。

---------------------------------------------------------------------

Copyright(C) Seiichi Yoshida (comet@aerith.net). All rights reserved.